| time (UTC) | temp F | wind direction | speed knots | gust knots | rain 1hr in | rain 24hr in | rain mn in | humidity % | barometer mb |
| 20260901181703 | 85 | 212 | 6.1 | 10.4 | 0.00 | 0.13 | 0.00 | 80 | 1015.5 |
| 20260901181205 | 85 | 223 | 4.3 | 10.4 | 0.00 | 0.13 | 0.00 | 80 | 1015.6 |
| 20260901180204 | 84 | 270 | 3.5 | 7.0 | 0.00 | 0.13 | 0.00 | 81 | 1015.6 |
| 20260901175704 | 84 | 189 | 2.6 | 7.8 | 0.00 | 0.13 | 0.00 | 82 | 1015.7 |
| 20260901175204 | 84 | 218 | 4.3 | 7.8 | 0.00 | 0.13 | 0.00 | 82 | 1015.8 |
| 20260901174204 | 85 | 218 | 4.3 | 7.8 | 0.00 | 0.13 | 0.00 | 81 | 1015.8 |
| 20260901173705 | 85 | 263 | 2.6 | 8.7 | 0.00 | 0.13 | 0.00 | 81 | 1015.8 |
| 20260901173204 | 85 | 217 | 5.2 | 8.7 | 0.00 | 0.13 | 0.00 | 80 | 1015.8 |
| 20260901172704 | 84 | 212 | 2.6 | 5.2 | 0.00 | 0.13 | 0.00 | 81 | 1015.7 |
| 20260901172205 | 84 | 225 | 2.6 | 6.1 | 0.00 | 0.13 | 0.00 | 81 | 1015.7 |
| 20260901171204 | 84 | 212 | 2.6 | 7.0 | 0.00 | 0.13 | 0.00 | 81 | 1015.7 |
| 20260901165704 | 84 | 238 | 2.6 | 6.1 | 0.00 | 0.13 | 0.00 | 80 | 1015.7 |
| 20260901165204 | 84 | 176 | 1.7 | 8.7 | 0.00 | 0.13 | 0.00 | 81 | 1015.6 |
| 20260901164703 | 84 | 212 | 3.5 | 8.7 | 0.00 | 0.13 | 0.00 | 80 | 1015.6 |
| 20260901164206 | 84 | 232 | 2.6 | 5.2 | 0.00 | 0.13 | 0.00 | 81 | 1015.7 |
| 20260901163707 | 83 | 206 | 1.7 | 5.2 | 0.00 | 0.13 | 0.00 | 81 | 1015.7 |
| 20260901163206 | 83 | 264 | 1.7 | 5.2 | 0.00 | 0.13 | 0.00 | 82 | 1015.8 |
| 20260901162707 | 83 | 267 | 0.9 | 6.1 | 0.00 | 0.13 | 0.00 | 81 | 1015.9 |
| 20260901162207 | 83 | 209 | 4.3 | 7.8 | 0.00 | 0.13 | 0.00 | 82 | 1015.9 |
| 20260901161707 | 83 | 222 | 2.6 | 7.8 | 0.00 | 0.13 | 0.00 | 81 | 1015.9 |
| 20260901161206 | 83 | 198 | 2.6 | 7.0 | 0.00 | 0.13 | 0.00 | 82 | 1015.9 |
| 20260901160707 | 83 | 204 | 2.6 | 6.1 | 0.00 | 0.13 | 0.00 | 82 | 1015.9 |
| 20260901160208 | 83 | 224 | 1.7 | 5.2 | 0.00 | 0.13 | 0.00 | 82 | 1015.9 |
| 20260901155707 | 83 | 250 | 1.7 | 6.1 | 0.00 | 0.13 | 0.00 | 82 | 1016.0 |
| 20260901155207 | 83 | 221 | 1.7 | 6.1 | 0.00 | 0.13 | 0.00 | 81 | 1016.0 |
| 20260901154207 | 82 | 185 | 0.0 | 4.3 | 0.00 | 0.13 | 0.00 | 82 | 1016.0 |
| 20260901153707 | 82 | 215 | 2.6 | 5.2 | 0.00 | 0.13 | 0.00 | 82 | 1015.9 |
| 20260901153208 | 81 | 209 | 1.7 | 2.6 | 0.00 | 0.13 | 0.00 | 83 | 1015.9 |
| 20260901152707 | 80 | 218 | 1.7 | 5.2 | 0.00 | 0.13 | 0.00 | 84 | 1015.9 |
| 20260901152207 | 80 | 305 | 3.5 | 5.2 | 0.00 | 0.13 | 0.00 | 85 | 1015.9 |
| 20260901151707 | 80 | 213 | 1.7 | 4.3 | 0.00 | 0.13 | 0.00 | 85 | 1016.0 |
| 20260901151207 | 79 | 282 | 1.7 | 6.1 | 0.00 | 0.13 | 0.00 | 86 | 1015.9 |
| 20260901150706 | 79 | 205 | 1.7 | 6.1 | 0.00 | 0.13 | 0.00 | 86 | 1015.9 |
| 20260901150207 | 79 | 224 | 2.6 | 5.2 | 0.00 | 0.14 | 0.00 | 86 | 1016.0 |
| 20260901145707 | 79 | 320 | 1.7 | 6.1 | 0.00 | 0.14 | 0.00 | 87 | 1016.0 |
| 20260901145206 | 79 | 318 | 2.6 | 6.1 | 0.00 | 0.14 | 0.00 | 87 | 1016.0 |
| 20260901144707 | 79 | 228 | 0.9 | 5.2 | 0.00 | 0.14 | 0.00 | 87 | 1016.0 |
| 20260901144207 | 78 | 224 | 4.3 | 7.8 | 0.00 | 0.14 | 0.00 | 87 | 1016.0 |
| 20260901143707 | 78 | 225 | 1.7 | 4.3 | 0.00 | 0.14 | 0.00 | 87 | 1016.0 |
| 20260901143207 | 78 | 320 | 1.7 | 4.3 | 0.00 | 0.14 | 0.00 | 88 | 1016.0 |
| 20260901142706 | 78 | 303 | 1.7 | 5.2 | 0.00 | 0.14 | 0.00 | 88 | 1016.0 |
| 20260901142207 | 77 | 294 | 1.7 | 5.2 | 0.00 | 0.15 | 0.00 | 88 | 1016.0 |
| 20260901141707 | 77 | 251 | 1.7 | 4.3 | 0.00 | 0.19 | 0.00 | 89 | 1016.0 |
| 20260901140706 | 76 | 318 | 1.7 | 4.3 | 0.00 | 0.19 | 0.00 | 89 | 1016.0 |
| 20260901135707 | 76 | 212 | 2.6 | 6.1 | 0.00 | 0.23 | 0.00 | 90 | 1016.0 |
| 20260901135206 | 76 | 201 | 1.7 | 5.2 | 0.00 | 0.23 | 0.00 | 90 | 1015.9 |
| 20260901134207 | 75 | 294 | 0.9 | 5.2 | 0.00 | 0.23 | 0.00 | 90 | 1015.9 |
| 20260901133707 | 75 | 218 | 2.6 | 5.2 | 0.00 | 0.23 | 0.00 | 90 | 1015.9 |
| 20260901133206 | 75 | 232 | 0.9 | 4.3 | 0.00 | 0.23 | 0.00 | 91 | 1015.9 |
| 20260901132206 | 74 | 232 | 1.7 | 4.3 | 0.00 | 0.25 | 0.00 | 92 | 1016.0 |
| 20260901131706 | 74 | 216 | 2.6 | 5.2 | 0.00 | 0.25 | 0.00 | 93 | 1015.9 |
| 20260901131206 | 73 | 205 | 2.6 | 5.2 | 0.00 | 0.25 | 0.00 | 94 | 1015.9 |
| 20260901130707 | 73 | 213 | 2.6 | 5.2 | 0.00 | 0.25 | 0.00 | 95 | 1015.9 |
| 20260901130206 | 73 | 223 | 1.7 | 4.3 | 0.00 | 0.26 | 0.00 | 95 | 1015.9 |
| 20260901125706 | 72 | 225 | 2.6 | 6.1 | 0.00 | 0.26 | 0.00 | 96 | 1016.0 |
| 20260901125206 | 72 | 222 | 2.6 | 6.1 | 0.00 | 0.26 | 0.00 | 97 | 1016.0 |
| 20260901124708 | 72 | 212 | 1.7 | 6.1 | 0.00 | 0.26 | 0.00 | 97 | 1015.9 |
| 20260901124206 | 72 | 213 | 1.7 | 4.3 | 0.00 | 0.26 | 0.00 | 98 | 1016.0 |
| 20260901123706 | 72 | 216 | 2.6 | 4.3 | 0.00 | 0.26 | 0.00 | 98 | 1015.9 |
| 20260901123206 | 71 | 216 | 0.9 | 2.6 | 0.00 | 0.26 | 0.00 | 98 | 1015.8 |
| 20260901122706 | 71 | 185 | 0.0 | 0.9 | 0.00 | 0.27 | 0.00 | 98 | 1015.8 |
| 20260901122207 | 71 | 207 | 0.0 | 0.9 | 0.00 | 0.27 | 0.00 | 98 | 1015.9 |
| 20260901121706 | 70 | 256 | 0.0 | 1.7 | 0.00 | 0.27 | 0.00 | 98 | 1015.9 |
| 20260901121206 | 70 | 257 | 0.0 | 0.9 | 0.00 | 0.27 | 0.00 | 98 | 1015.9 |
| 20260901120706 | 70 | 266 | 0.0 | 0.9 | 0.00 | 0.27 | 0.00 | 98 | 1015.8 |
| 20260901120206 | 70 | 200 | 0.0 | 0.9 | 0.00 | 0.27 | 0.00 | 98 | 1015.5 |
| 20260901115206 | 70 | 158 | 0.9 | 0.9 | 0.00 | 0.27 | 0.00 | 98 | 1015.5 |
| 20260901113706 | 69 | 167 | 0.0 | 1.7 | 0.00 | 0.27 | 0.00 | 98 | 1015.2 |
| 20260901113206 | 70 | 173 | 0.0 | 1.7 | 0.00 | 0.27 | 0.00 | 98 | 1015.1 |
| 20260901112706 | 69 | 160 | 0.0 | 0.9 | 0.00 | 0.27 | 0.00 | 98 | 1015.1 |
| 20260901112206 | 69 | 187 | 0.0 | 0.9 | 0.00 | 0.27 | 0.00 | 98 | 1015.1 |
| 20260901111705 | 69 | 172 | 0.0 | 1.7 | 0.00 | 0.27 | 0.00 | 97 | 1015.1 |
| 20260901111206 | 69 | 160 | 0.9 | 1.7 | 0.00 | 0.27 | 0.00 | 97 | 1015.0 |
| 20260901110706 | 69 | 160 | 0.0 | 0.9 | 0.00 | 0.27 | 0.00 | 97 | 1015.1 |
| 20260901110206 | 69 | 216 | 0.0 | 0.9 | 0.00 | 0.27 | 0.00 | 97 | 1015.1 |
| 20260901105706 | 69 | 247 | 0.0 | 0.9 | 0.00 | 0.27 | 0.00 | 97 | 1015.0 |
| 20260901105206 | 69 | 159 | 0.9 | 0.9 | 0.00 | 0.27 | 0.00 | 97 | 1015.0 |
| 20260901104706 | 69 | 254 | 0.0 | 0.9 | 0.00 | 0.27 | 0.00 | 97 | 1015.1 |
| 20260901103206 | 69 | 150 | 0.0 | 1.7 | 0.00 | 0.27 | 0.00 | 97 | 1014.8 |
| 20260901102706 | 69 | 138 | 0.0 | 0.9 | 0.00 | 0.27 | 0.00 | 97 | 1014.9 |
| 20260901102206 | 69 | 160 | 0.9 | 1.7 | 0.00 | 0.27 | 0.00 | 97 | 1014.9 |
| 20260901101206 | 69 | 193 | 0.0 | 0.9 | 0.00 | 0.27 | 0.00 | 97 | 1015.0 |
| 20260901100706 | 69 | 198 | 0.0 | 1.7 | 0.00 | 0.27 | 0.00 | 97 | 1015.0 |
| 20260901100206 | 69 | 163 | 0.9 | 1.7 | 0.00 | 0.27 | 0.00 | 97 | 1014.9 |
| 20260901095706 | 69 | 162 | 0.9 | 1.7 | 0.00 | 0.27 | 0.00 | 97 | 1014.9 |
| 20260901094706 | 69 | 233 | 0.0 | 0.9 | 0.00 | 0.27 | 0.00 | 97 | 1014.9 |
| 20260901094205 | 69 | 148 | 0.9 | 1.7 | 0.00 | 0.27 | 0.00 | 97 | 1014.8 |
| 20260901093706 | 70 | 157 | 0.0 | 1.7 | 0.00 | 0.27 | 0.00 | 97 | 1014.9 |
| 20260901093206 | 70 | 169 | 0.0 | 1.7 | 0.00 | 0.27 | 0.00 | 97 | 1014.9 |
| 20260901092705 | 70 | 167 | 0.0 | 0.9 | 0.00 | 0.27 | 0.00 | 97 | 1014.9 |
| 20260901092207 | 70 | 174 | 0.0 | 0.9 | 0.00 | 0.27 | 0.00 | 97 | 1014.9 |
| 20260901091705 | 70 | 166 | 0.0 | 0.9 | 0.00 | 0.27 | 0.00 | 97 | 1014.9 |
| 20260901090206 | 70 | 158 | 0.9 | 1.7 | 0.00 | 0.27 | 0.00 | 97 | 1014.9 |
| 20260901085707 | 70 | 181 | 0.0 | 0.9 | 0.00 | 0.27 | 0.00 | 97 | 1014.9 |
| 20260901084706 | 70 | 170 | 0.0 | 0.9 | 0.00 | 0.27 | 0.00 | 97 | 1014.8 |
| 20260901083706 | 70 | 166 | 0.0 | 0.9 | 0.00 | 0.27 | 0.00 | 96 | 1014.7 |
| 20260901083206 | 70 | 152 | 0.0 | 0.9 | 0.00 | 0.27 | 0.00 | 96 | 1014.7 |
| 20260901082706 | 70 | 222 | 0.0 | 0.9 | 0.00 | 0.27 | 0.00 | 96 | 1014.8 |
| 20260901082206 | 70 | 256 | 0.0 | 1.7 | 0.00 | 0.27 | 0.00 | 96 | 1014.8 |
| 20260901081706 | 70 | 199 | 0.0 | 1.7 | 0.00 | 0.27 | 0.00 | 96 | 1014.8 |
| 20260901081206 | 70 | 219 | 0.0 | 0.9 | 0.00 | 0.27 | 0.00 | 96 | 1014.8 |
| 20260901080206 | 70 | 147 | 0.0 | 1.7 | 0.00 | 0.27 | 0.00 | 96 | 1014.8 |
| 20260901075706 | 71 | 215 | 0.9 | 2.6 | 0.00 | 0.27 | 0.00 | 96 | 1014.8 |
| 20260901075206 | 70 | 209 | 0.9 | 1.7 | 0.00 | 0.27 | 0.00 | 96 | 1014.7 |
| 20260901074706 | 70 | 182 | 0.9 | 1.7 | 0.00 | 0.27 | 0.00 | 96 | 1014.6 |
| 20260901074206 | 70 | 186 | 0.9 | 4.3 | 0.00 | 0.27 | 0.00 | 96 | 1014.7 |
| 20260901073705 | 70 | 170 | 0.0 | 1.7 | 0.00 | 0.27 | 0.00 | 96 | 1014.7 |
| 20260901073205 | 70 | 158 | 0.9 | 1.7 | 0.00 | 0.27 | 0.00 | 96 | 1014.7 |
| 20260901072705 | 70 | 159 | 0.9 | 1.7 | 0.00 | 0.27 | 0.00 | 96 | 1014.6 |
| 20260901072206 | 70 | 167 | 0.0 | 1.7 | 0.00 | 0.27 | 0.00 | 96 | 1014.6 |
| 20260901071705 | 70 | 172 | 0.0 | 1.7 | 0.00 | 0.27 | 0.00 | 96 | 1014.6 |
| 20260901071206 | 70 | 175 | 0.9 | 1.7 | 0.00 | 0.27 | 0.00 | 96 | 1014.6 |
| 20260901065706 | 70 | 157 | 0.9 | 1.7 | 0.00 | 0.27 | 0.00 | 95 | 1014.7 |
| 20260901065206 | 70 | 165 | 0.0 | 1.7 | 0.00 | 0.27 | 0.00 | 95 | 1014.7 |
| 20260901064705 | 70 | 67 | 0.0 | 0.9 | 0.00 | 0.27 | 0.00 | 95 | 1014.7 |
| 20260901064205 | 70 | 177 | 0.0 | 0.9 | 0.00 | 0.27 | 0.00 | 95 | 1014.7 |
| 20260901062706 | 71 | 154 | 0.0 | 0.9 | 0.00 | 0.27 | 0.00 | 95 | 1014.7 |
| 20260901062207 | 71 | 172 | 0.0 | 0.9 | 0.00 | 0.27 | 0.00 | 94 | 1014.7 |
| 20260901061705 | 71 | 198 | 0.0 | 0.9 | 0.00 | 0.27 | 0.00 | 94 | 1014.7 |
| 20260901061206 | 71 | 199 | 0.0 | 0.9 | 0.00 | 0.27 | 0.00 | 94 | 1014.7 |
| 20260901060705 | 71 | 179 | 0.0 | 0.9 | 0.00 | 0.27 | 0.00 | 94 | 1014.8 |
| 20260901060206 | 71 | 179 | 0.0 | 0.9 | 0.00 | 0.27 | 0.00 | 94 | 1014.8 |
| 20260901055206 | 71 | 198 | 0.0 | 0.9 | 0.00 | 0.27 | 0.00 | 94 | 1014.9 |
| 20260901054206 | 72 | 221 | 0.0 | 0.9 | 0.00 | 0.27 | 0.00 | 93 | 1015.0 |
| 20260901053706 | 72 | 154 | 0.0 | 1.7 | 0.00 | 0.27 | 0.00 | 93 | 1015.0 |
| 20260901053205 | 72 | 238 | 0.9 | 1.7 | 0.00 | 0.27 | 0.00 | 93 | 1015.0 |
| 20260901052705 | 72 | 247 | 0.9 | 1.7 | 0.00 | 0.27 | 0.00 | 93 | 1014.9 |
| 20260901052205 | 72 | 264 | 0.0 | 2.6 | 0.00 | 0.27 | 0.00 | 92 | 1014.9 |
| 20260901051705 | 72 | 219 | 1.7 | 2.6 | 0.00 | 0.27 | 0.00 | 93 | 1014.9 |
| 20260901051205 | 72 | 218 | 1.7 | 2.6 | 0.00 | 0.27 | 0.00 | 93 | 1014.9 |
| 20260901050705 | 72 | 220 | 0.9 | 1.7 | 0.00 | 0.27 | 0.00 | 93 | 1014.9 |
| 20260901050205 | 72 | 184 | 0.9 | 1.7 | 0.00 | 0.27 | 0.00 | 93 | 1014.9 |
| 20260901045707 | 72 | 189 | 0.9 | 4.3 | 0.12 | 0.27 | 0.00 | 92 | 1014.9 |
| 20260901045207 | 72 | 210 | 0.9 | 1.7 | 0.12 | 0.27 | 0.00 | 92 | 1014.9 |
| 20260901044205 | 72 | 226 | 0.0 | 1.7 | 0.12 | 0.27 | 0.00 | 92 | 1014.9 |
| 20260901043706 | 73 | 231 | 0.0 | 1.7 | 0.12 | 0.27 | 0.00 | 92 | 1014.9 |
| 20260901042706 | 73 | 178 | 0.9 | 1.7 | 0.12 | 0.27 | 0.00 | 91 | 1014.9 |
| 20260901042205 | 73 | 229 | 0.0 | 1.7 | 0.12 | 0.27 | 0.00 | 91 | 1014.9 |
| 20260901041206 | 74 | 177 | 0.0 | 0.9 | 0.12 | 0.27 | 0.00 | 90 | 1015.0 |
| 20260901040205 | 74 | 157 | 0.0 | 0.9 | 0.12 | 0.27 | 0.00 | 89 | 1015.1 |
| 20260901035706 | 74 | 258 | 0.0 | 1.7 | 0.00 | 0.15 | 0.12 | 89 | 1015.2 |
| 20260901035205 | 74 | 237 | 1.7 | 4.3 | 0.00 | 0.15 | 0.12 | 88 | 1015.1 |
| 20260901034705 | 74 | 243 | 1.7 | 4.3 | 0.00 | 0.15 | 0.12 | 88 | 1015.1 |
| 20260901034205 | 75 | 213 | 1.7 | 4.3 | 0.00 | 0.15 | 0.12 | 88 | 1015.2 |
| 20260901033705 | 75 | 210 | 1.7 | 2.6 | 0.00 | 0.15 | 0.12 | 88 | 1015.2 |
| 20260901033207 | 75 | 258 | 0.9 | 2.6 | 0.00 | 0.15 | 0.12 | 88 | 1015.2 |
| 20260901032205 | 75 | 206 | 0.9 | 2.6 | 0.00 | 0.15 | 0.12 | 87 | 1015.1 |
| 20260901031706 | 76 | 226 | 1.7 | 4.3 | 0.00 | 0.15 | 0.12 | 87 | 1015.2 |
| 20260901031205 | 76 | 203 | 1.7 | 2.6 | 0.00 | 0.15 | 0.12 | 86 | 1015.2 |
| 20260901030705 | 76 | 241 | 0.9 | 2.6 | 0.00 | 0.15 | 0.12 | 86 | 1015.2 |
| 20260901030206 | 76 | 250 | 1.7 | 2.6 | 0.00 | 0.15 | 0.12 | 85 | 1015.2 |
| 20260901025705 | 76 | 215 | 0.9 | 4.3 | 0.00 | 0.15 | 0.12 | 85 | 1015.2 |
| 20260901025205 | 76 | 227 | 0.9 | 4.3 | 0.00 | 0.15 | 0.12 | 85 | 1015.2 |
| 20260901024705 | 76 | 237 | 1.7 | 2.6 | 0.00 | 0.15 | 0.12 | 85 | 1015.2 |
| 20260901022204 | 76 | 172 | 0.9 | 4.3 | 0.00 | 0.15 | 0.12 | 86 | 1015.0 |
| 20260901021705 | 77 | 180 | 0.9 | 6.1 | 0.00 | 0.15 | 0.12 | 86 | 1014.9 |
| 20260901021205 | 77 | 191 | 0.9 | 5.2 | 0.00 | 0.15 | 0.12 | 85 | 1015.0 |
| 20260901020705 | 77 | 203 | 3.5 | 5.2 | 0.00 | 0.15 | 0.12 | 84 | 1015.0 |
| 20260901020205 | 77 | 203 | 1.7 | 4.3 | 0.00 | 0.15 | 0.12 | 84 | 1015.0 |
| 20260901015705 | 77 | 197 | 1.7 | 6.1 | 0.00 | 0.15 | 0.12 | 84 | 1015.0 |
| 20260901015205 | 77 | 194 | 2.6 | 5.2 | 0.00 | 0.15 | 0.12 | 84 | 1015.0 |
| 20260901014705 | 77 | 195 | 2.6 | 5.2 | 0.00 | 0.15 | 0.12 | 84 | 1015.0 |
| 20260901014205 | 77 | 176 | 0.9 | 2.6 | 0.00 | 0.15 | 0.12 | 84 | 1014.9 |
| 20260901013705 | 78 | 201 | 2.6 | 4.3 | 0.00 | 0.15 | 0.12 | 83 | 1015.0 |
| 20260901013205 | 78 | 194 | 1.7 | 4.3 | 0.00 | 0.15 | 0.12 | 83 | 1015.0 |
| 20260901012205 | 78 | 203 | 2.6 | 6.1 | 0.00 | 0.15 | 0.12 | 83 | 1015.0 |
| 20260901011705 | 78 | 203 | 2.6 | 5.2 | 0.00 | 0.15 | 0.12 | 83 | 1014.9 |
| 20260901011205 | 78 | 198 | 3.5 | 5.2 | 0.00 | 0.15 | 0.12 | 83 | 1014.9 |
| 20260901010705 | 78 | 226 | 2.6 | 6.1 | 0.00 | 0.15 | 0.12 | 83 | 1014.7 |
| 20260901010205 | 78 | 188 | 0.9 | 4.3 | 0.00 | 0.15 | 0.12 | 83 | 1014.5 |
| 20260901005705 | 78 | 187 | 2.6 | 5.2 | 0.00 | 0.15 | 0.12 | 83 | 1014.7 |
| 20260901005205 | 78 | 208 | 2.6 | 6.1 | 0.00 | 0.15 | 0.12 | 82 | 1014.8 |
| 20260901004705 | 78 | 199 | 3.5 | 5.2 | 0.00 | 0.15 | 0.12 | 82 | 1014.8 |
| 20260901004204 | 79 | 214 | 2.6 | 5.2 | 0.00 | 0.15 | 0.12 | 82 | 1014.9 |
| 20260901003705 | 79 | 197 | 3.5 | 5.2 | 0.00 | 0.15 | 0.12 | 82 | 1014.9 |
| 20260901003205 | 79 | 212 | 2.6 | 6.1 | 0.00 | 0.15 | 0.12 | 81 | 1014.9 |
| 20260901002704 | 79 | 217 | 4.3 | 7.0 | 0.00 | 0.15 | 0.12 | 81 | 1014.9 |
| 20260901002205 | 79 | 215 | 2.6 | 7.0 | 0.00 | 0.15 | 0.12 | 81 | 1014.8 |
| 20260901001705 | 80 | 217 | 3.5 | 7.8 | 0.00 | 0.15 | 0.12 | 80 | 1014.8 |
| 20260901001205 | 80 | 220 | 4.3 | 7.8 | 0.00 | 0.15 | 0.12 | 80 | 1014.7 |
| 20260901000705 | 80 | 206 | 4.3 | 8.7 | 0.00 | 0.15 | 0.12 | 79 | 1014.6 |
| 20260901000204 | 80 | 222 | 4.3 | 8.7 | 0.00 | 0.15 | 0.12 | 79 | 1014.6 |
| 20260831235704 | 80 | 226 | 4.3 | 10.4 | 0.00 | 0.15 | 0.12 | 78 | 1014.5 |
| 20260831234705 | 81 | 211 | 4.3 | 7.8 | 0.00 | 0.15 | 0.12 | 78 | 1014.4 |
| 20260831234205 | 81 | 214 | 5.2 | 8.7 | 0.00 | 0.15 | 0.12 | 77 | 1014.4 |
| 20260831233704 | 81 | 207 | 2.6 | 7.8 | 0.00 | 0.15 | 0.12 | 78 | 1014.4 |
| 20260831232704 | 81 | 211 | 4.3 | 7.8 | 0.00 | 0.15 | 0.12 | 79 | 1014.3 |
| 20260831231705 | 81 | 201 | 1.7 | 7.0 | 0.00 | 0.15 | 0.12 | 79 | 1014.4 |
| 20260831231205 | 81 | 218 | 4.3 | 8.7 | 0.00 | 0.15 | 0.12 | 79 | 1014.4 |
| 20260831230704 | 80 | 211 | 2.6 | 6.1 | 0.00 | 0.15 | 0.12 | 80 | 1014.5 |
| 20260831230204 | 81 | 188 | 1.7 | 5.2 | 0.00 | 0.15 | 0.12 | 80 | 1014.4 |
| 20260831225704 | 81 | 198 | 1.7 | 5.2 | 0.00 | 0.15 | 0.12 | 80 | 1014.4 |
| 20260831225204 | 81 | 210 | 1.7 | 5.2 | 0.00 | 0.15 | 0.12 | 79 | 1014.3 |
| 20260831224205 | 81 | 215 | 0.9 | 4.3 | 0.00 | 0.15 | 0.12 | 79 | 1014.2 |
| 20260831223705 | 81 | 179 | 0.9 | 4.3 | 0.00 | 0.15 | 0.12 | 78 | 1014.0 |
| 20260831223204 | 82 | 191 | 2.6 | 5.2 | 0.00 | 0.15 | 0.12 | 77 | 1014.1 |
| 20260831222705 | 82 | 169 | 0.9 | 4.3 | 0.00 | 0.15 | 0.12 | 77 | 1014.1 |
| 20260831222204 | 82 | 201 | 0.9 | 4.3 | 0.00 | 0.15 | 0.12 | 76 | 1014.2 |
| 20260831221704 | 82 | 209 | 3.5 | 8.7 | 0.00 | 0.15 | 0.12 | 74 | 1014.1 |
| 20260831220704 | 83 | 211 | 2.6 | 8.7 | 0.00 | 0.15 | 0.12 | 72 | 1014.1 |
| 20260831220204 | 83 | 199 | 3.5 | 7.8 | 0.00 | 0.15 | 0.12 | 73 | 1014.1 |
| 20260831215705 | 83 | 205 | 5.2 | 8.7 | 0.00 | 0.15 | 0.12 | 72 | 1014.1 |
| 20260831215204 | 83 | 206 | 3.5 | 8.7 | 0.00 | 0.15 | 0.12 | 72 | 1014.1 |
| 20260831214204 | 83 | 212 | 5.2 | 8.7 | 0.00 | 0.15 | 0.12 | 71 | 1014.1 |
| 20260831213705 | 83 | 207 | 2.6 | 7.8 | 0.00 | 0.15 | 0.12 | 72 | 1014.1 |
| 20260831213204 | 83 | 203 | 1.7 | 6.1 | 0.00 | 0.15 | 0.12 | 72 | 1014.3 |
| 20260831212705 | 82 | 229 | 2.6 | 7.0 | 0.00 | 0.15 | 0.12 | 73 | 1014.2 |
| 20260831211704 | 82 | 147 | 1.7 | 7.0 | 0.00 | 0.15 | 0.12 | 73 | 1014.2 |
| 20260831211205 | 82 | 197 | 4.3 | 7.8 | 0.00 | 0.15 | 0.12 | 73 | 1014.3 |
| 20260831210705 | 82 | 192 | 3.5 | 7.0 | 0.00 | 0.15 | 0.12 | 73 | 1014.2 |
| 20260831210204 | 82 | 197 | 3.5 | 7.0 | 0.00 | 0.15 | 0.12 | 73 | 1014.3 |
| 20260831205704 | 81 | 206 | 2.6 | 7.8 | 0.00 | 0.15 | 0.12 | 74 | 1014.3 |
| 20260831205204 | 81 | 146 | 2.6 | 7.8 | 0.00 | 0.15 | 0.12 | 75 | 1014.2 |
| 20260831204705 | 81 | 194 | 2.6 | 12.2 | 0.00 | 0.15 | 0.12 | 74 | 1014.3 |
| 20260831204204 | 81 | 185 | 2.6 | 12.2 | 0.00 | 0.15 | 0.12 | 75 | 1014.3 |
| 20260831203705 | 81 | 199 | 2.6 | 7.0 | 0.00 | 0.15 | 0.12 | 75 | 1014.2 |
| 20260831203204 | 81 | 174 | 4.3 | 8.7 | 0.00 | 0.15 | 0.12 | 76 | 1014.2 |
| 20260831202704 | 81 | 163 | 1.7 | 7.8 | 0.00 | 0.15 | 0.12 | 76 | 1014.3 |
| 20260831202205 | 80 | 198 | 2.6 | 10.4 | 0.00 | 0.15 | 0.12 | 75 | 1014.3 |
| 20260831201704 | 79 | 176 | 1.7 | 7.8 | 0.00 | 0.15 | 0.12 | 78 | 1014.2 |
| 20260831200705 | 79 | 211 | 4.3 | 11.3 | 0.00 | 0.15 | 0.12 | 79 | 1014.4 |
| 20260831200204 | 79 | 171 | 2.6 | 7.8 | 0.00 | 0.15 | 0.12 | 81 | 1014.4 |
| 20260831195704 | 79 | 201 | 2.6 | 6.1 | 0.01 | 0.15 | 0.12 | 81 | 1014.4 |
| 20260831195205 | 79 | 188 | 2.6 | 7.0 | 0.01 | 0.15 | 0.12 | 81 | 1014.5 |
| 20260831194705 | 79 | 182 | 2.6 | 7.0 | 0.01 | 0.15 | 0.12 | 81 | 1014.7 |
| 20260831194205 | 79 | 206 | 1.7 | 8.7 | 0.01 | 0.15 | 0.12 | 80 | 1014.7 |
| 20260831193705 | 79 | 221 | 2.6 | 7.8 | 0.01 | 0.15 | 0.12 | 80 | 1014.7 |
| 20260831192704 | 78 | 203 | 2.6 | 10.4 | 0.01 | 0.15 | 0.12 | 81 | 1014.9 |
| 20260831192204 | 76 | 189 | 1.7 | 6.1 | 0.01 | 0.15 | 0.12 | 86 | 1014.9 |
| 20260831191704 | 75 | 195 | 1.7 | 6.1 | 0.01 | 0.15 | 0.12 | 89 | 1015.0 |
| 20260831191205 | 75 | 187 | 0.9 | 4.3 | 0.01 | 0.15 | 0.12 | 88 | 1015.2 |
| 20260831190206 | 74 | 193 | 0.9 | 6.1 | 0.01 | 0.15 | 0.12 | 89 | 1015.4 |
| 20260831185704 | 74 | 210 | 2.6 | 6.1 | 0.00 | 0.14 | 0.11 | 89 | 1015.5 |
| 20260831185204 | 74 | 180 | 0.9 | 1.7 | 0.00 | 0.14 | 0.11 | 90 | 1015.5 |
| 20260831184704 | 75 | 171 | 0.9 | 2.6 | 0.00 | 0.14 | 0.11 | 88 | 1015.7 |
| 20260831184204 | 75 | 201 | 1.7 | 4.3 | 0.00 | 0.14 | 0.11 | 86 | 1015.9 |
| 20260831183704 | 74 | 222 | 0.0 | 2.6 | 0.00 | 0.14 | 0.11 | 86 | 1015.9 |
| 20260831183204 | 74 | 207 | 0.9 | 4.3 | 0.00 | 0.14 | 0.11 | 88 | 1015.5 |